Weather History for 68828 - August, 2013

Change the Weather History Date:

Saturday, August 3, 2013

  Actual Average Record
Temperature  
Mean Temperature 60 °F -  
Max Temperature 75 °F 64 °F - ()
Min Temperature 45 °F 45 °F - ()
Degree Days  
Heating Degree Days 5    
Growing Degree Days 10 (Base 50)    
Moisture  
Dew Point 46 °F    
Average Humidity 61    
Maximum Humidity 94    
Minimum Humidity 25    
Precipitation  
Precipitation 0.00 in - - ()
Sea Level Pressure  
Sea Level Pressure 30.25 in    
Wind  
Wind Speed 4 mph ()    
Max Wind Speed 7 mph    
Max Gust Speed -    
Visibility 8.1 miles    
Events Fog    
T = Trace of Precipitation, MM = Missing Value Source: Averaged Metar Reports

Daily Weather History Graph

Daily Weather History Graph

Search for Another Location

Airport or City:

Trip Planner

Search our weather history database for the weather conditions in past years. The results will help you decide how hot, cold, wet, or windy it might be!

Date:

Astronomy

Aug. 03, 2013 Rise Set
Actual Time 7:21 AM SAST 5:52 PM SAST
Civil Twilight 6:55 AM SAST 6:18 PM SAST
Nautical Twilight 6:25 AM SAST 6:48 PM SAST
Astronomical Twilight 5:55 AM SAST 7:18 PM SAST
Moon 4:35 AM SAST (8/3) 3:03 PM SAST (8/3)
Length of Visible Light 11h 23m
Length of Day
10h 30m
Waning Crescent, 11% of the Moon is Illuminated
Aug 3
Waning Crescent
Aug 6
New
Aug 14
First Quarter
Aug 21
Full
Aug 28
Last Quarter

Hourly Weather History & Observations

Time (SAST) Temp. Windchill Dew Point Humidity Pressure Visibility Wind Dir Wind Speed Gust Speed Precip Events Conditions
12:00 AM 53.6 °F - 44.6 °F 72% 30.30 in - NNE 5.8 mph - N/A   Clear
1:00 AM 53.6 °F - 42.8 °F 67% 30.30 in - NNE 4.6 mph - N/A   Clear
2:00 AM 54 °F - 42 °F 52% 30.30 in 12 mi NNE 5.8 mph - -  
2:00 AM 53.6 °F - 42.8 °F 67% 30.27 in - NNE 6.9 mph - N/A   Clear
3:00 AM 51.8 °F - 41.0 °F 67% 30.27 in - NE 4.6 mph - N/A   Clear
5:00 AM 49 °F - 41 °F 66% 30.29 in 12 mi South 5.8 mph - -  
5:00 AM 50.0 °F - 41.0 °F 71% 30.27 in - South 5.8 mph - N/A   Clear
6:00 AM 46.4 °F 43.5 °F 41.0 °F 81% 30.30 in - WNW 5.8 mph - N/A   Clear
7:00 AM 51.8 °F - 50.0 °F 94% 30.30 in 6.2 mi NW 4.6 mph - N/A   Overcast
8:00 AM 53 °F - 51 °F 90% 30.32 in 4 mi NNE 3.5 mph - -   Mist
8:00 AM 53.6 °F - 51.8 °F 94% 30.30 in 3.7 mi NNE 3.5 mph - N/A   Mostly Cloudy
9:00 AM 53.6 °F - 51.8 °F 94% 30.30 in 3.1 mi North 3.5 mph - N/A   Mostly Cloudy
10:00 AM 53.6 °F - 51.8 °F 94% 30.30 in 0.2 mi Variable 2.3 mph - N/A Fog Fog
11:00 AM 62 °F - 53 °F 63% 30.31 in 12 mi East 6.9 mph - -   Partly Cloudy
11:00 AM 62.6 °F - 51.8 °F 68% 30.30 in - East 6.9 mph - N/A   Clear
12:00 PM 68.0 °F - 50.0 °F 52% 30.27 in - ESE 4.6 mph - N/A   Clear
1:00 PM 69.8 °F - 50.0 °F 49% 30.24 in - ESE 4.6 mph - N/A   Clear
2:00 PM 70 °F - 51 °F 40% 30.23 in 12 mi SSE 3.5 mph - -  
2:00 PM 69.8 °F - 51.8 °F 53% 30.21 in - SSE 3.5 mph - N/A   Clear
3:00 PM 73.4 °F - 50.0 °F 44% 30.21 in - SSE 3.5 mph - N/A   Clear
4:00 PM 73.4 °F - 48.2 °F 41% 30.18 in - SE 5.8 mph - N/A   Clear
5:00 PM 71 °F - 43 °F 25% 30.21 in 12 mi East 3.5 mph - -  
5:00 PM 71.6 °F - 42.8 °F 35% 30.18 in - East 3.5 mph - N/A   Clear
6:00 PM 69.8 °F - 44.6 °F 40% 30.18 in - East 3.5 mph - N/A   Clear
7:00 PM 60.8 °F - 46.4 °F 59% 30.18 in - NNW 3.5 mph - N/A   Clear
8:00 PM 59 °F - 44 °F 45% 30.22 in 12 mi North 2.3 mph - -  
8:00 PM 59.0 °F - 42.8 °F 55% 30.21 in - North 2.3 mph - N/A   Clear
9:00 PM 57.2 °F - 41.0 °F 55% 30.18 in - North 3.5 mph - N/A   Clear
10:00 PM 57.2 °F - 39.2 °F 51% 30.18 in - North 3.5 mph - N/A   Clear
11:00 PM 57.2 °F - 35.6 °F 44% 30.18 in - North 6.9 mph - N/A   Clear